Voltar ao catálogo

MKA-FKI 1

AtivoCiênciaSSO
NORAD 38711·PAYLOAD·🇷🇺 Russia

Lançado Jul 22, 2012 de Baikonur Cosmodrome

Loading…

Próximas Passagens (próximas 24 horas)

TLE

AtualizadoSource: Space-Track

Época: Sep 14, 2026, 06:18 UTC

1 38711U 12039E   26257.26277464  .00000106  00000-0  64667-4 0  9995
2 38711  98.9812  16.3590 0010407 271.4913  88.5074 14.25452586735539

Acompanhe MKA-FKI 1 em tempo real com AllMySat

Download on the App Store